EW6819 Weather Reports


Display with metric or nautical units.
time (UTC)temp
F
wind
direction
speed
MPH
gust
MPH
rain 1hr
in
rain 24hr
in
rain mn
in
humidity
%
barometer
mb
20260901075003 66 217 1.0 4.0 0.00 0.68 0.09 65 1014.9
20260901074503 66 234 1.0 7.0 0.00 0.68 0.09 65 1015.1
20260901074003 66 233 1.0 7.0 0.00 0.68 0.09 65 1015.2
20260901073503 66 240 1.0 4.0 0.00 0.68 0.09 65 1015.4
20260901073003 66 240 1.0 5.0 0.00 0.68 0.09 65 1015.4
20260901072503 66 247 1.0 5.0 0.00 0.68 0.09 65 1015.4
20260901072003 66 254 1.0 3.0 0.00 0.68 0.09 65 1015.5
20260901071712 66 254 1.0 3.0 0.00 0.68 0.09 65 1015.5
20260901071003 66 255 1.0 3.0 0.00 0.68 0.09 65 1015.5
20260901070503 66 257 1.0 2.0 0.00 0.68 0.09 65 1015.5
20260901070213 66 257 1.0 3.0 0.00 0.68 0.09 65 1015.6
20260901065503 67 217 1.0 3.0 0.00 0.68 0.09 65 1015.6
20260901065003 67 200 1.0 5.0 0.06 0.68 0.09 65 1015.7
20260901064503 67 200 1.0 5.0 0.08 0.68 0.09 65 1015.6
20260901064003 67 0 0.0 0.0 0.09 0.68 0.09 65 1015.6
20260901063503 67 183 1.0 3.0 0.09 0.68 0.09 65 1015.6
20260901063003 67 184 1.0 3.0 0.09 0.68 0.09 65 1015.7
20260901062714 67 184 1.0 3.0 0.09 0.68 0.09 65 1015.7
20260901062003 67 189 1.0 2.0 0.09 0.68 0.09 65 1015.9
20260901061503 67 189 1.0 2.0 0.09 0.68 0.09 65 1016.0
20260901060503 67 193 2.0 4.0 0.09 0.68 0.09 65 1016.1
20260901060003 67 202 1.0 4.0 0.09 0.68 0.09 65 1016.0
20260901055503 67 267 0.0 4.0 0.09 0.68 0.09 65 1016.2
20260901055003 67 266 0.0 4.0 0.03 0.62 0.03 65 1016.5
20260901054503 67 257 0.0 2.0 0.01 0.60 0.01 65 1016.4
20260901054003 67 257 1.0 2.0 0.00 0.59 0.00 65 1016.3
20260901053503 67 250 1.0 4.0 0.00 0.59 0.00 65 1016.3
20260901053003 66 253 2.0 4.0 0.00 0.59 0.00 65 1016.4
20260901052503 66 257 1.0 3.0 0.00 0.59 0.00 65 1016.4
20260901052004 66 256 2.0 4.0 0.00 0.59 0.00 65 1016.5
20260901051503 66 255 2.0 4.0 0.00 0.59 0.00 65 1016.6
20260901051003 66 257 2.0 3.0 0.00 0.59 0.00 65 1016.4
20260901050503 66 258 2.0 3.0 0.00 0.59 0.00 64 1016.4
20260901050003 66 259 2.0 4.0 0.00 0.59 0.00 64 1016.4
20260901045714 66 260 2.0 4.0 0.00 0.59 0.00 64 1016.5
20260901045003 66 260 1.0 3.0 0.00 0.59 0.00 64 1016.4
20260901044505 66 260 1.0 3.0 0.00 0.59 0.00 64 1016.6
20260901044003 66 261 2.0 4.0 0.00 0.59 0.00 64 1016.6
20260901043713 66 262 1.0 4.0 0.00 0.59 0.00 64 1016.7
20260901043003 66 263 1.0 3.0 0.00 0.59 0.00 64 1016.7
20260901042503 66 264 1.0 4.0 0.00 0.59 0.00 64 1016.8
20260901042003 67 265 1.0 4.0 0.00 0.59 0.00 64 1016.7
20260901041503 67 267 2.0 4.0 0.00 0.59 0.00 64 1016.7
20260901041212 67 268 2.0 4.0 0.00 0.59 0.00 64 1016.7
20260901040503 67 269 2.0 4.0 0.00 0.59 0.00 63 1016.6
20260901040003 67 271 2.0 4.0 0.00 0.59 0.00 63 1016.6
20260901035503 67 273 2.0 4.0 0.00 0.59 0.59 63 1016.4
20260901035003 67 270 2.0 7.0 0.00 0.59 0.59 64 1016.7
20260901034503 67 267 1.0 7.0 0.00 0.59 0.59 63 1016.6
20260901034003 67 268 1.0 3.0 0.00 0.59 0.59 64 1016.6
20260901033713 67 267 1.0 3.0 0.00 0.59 0.59 64 1016.6
20260901033003 67 258 1.0 7.0 0.00 0.59 0.59 64 1016.8
20260901032713 67 253 1.0 7.0 0.00 0.59 0.59 64 1016.7
20260901032003 67 233 0.0 3.0 0.00 0.59 0.59 64 1016.7
20260901031503 68 225 0.0 3.0 0.00 0.59 0.59 64 1016.8
20260901031003 68 194 0.0 3.0 0.00 0.59 0.59 64 1017.0
20260901030503 68 189 0.0 4.0 0.00 0.59 0.59 64 1017.0
20260901030003 68 209 1.0 4.0 0.00 0.59 0.59 64 1017.0
20260901025503 68 207 2.0 9.0 0.00 0.59 0.59 64 1017.0
20260901025003 68 213 2.0 9.0 0.00 0.59 0.59 64 1017.2
20260901024503 68 257 1.0 6.0 0.00 0.59 0.59 64 1017.3
20260901024003 68 267 1.0 6.0 0.01 0.59 0.59 64 1017.4
20260901023503 68 263 1.0 3.0 0.01 0.59 0.59 64 1017.4
20260901023003 68 256 0.0 3.0 0.01 0.59 0.59 64 1017.3
20260901022504 68 246 0.0 2.0 0.01 0.59 0.59 64 1017.3
20260901022003 68 250 0.0 3.0 0.01 0.59 0.59 64 1017.5
20260901021503 68 248 0.0 3.0 0.01 0.59 0.59 64 1017.6
20260901021003 68 245 0.0 2.0 0.01 0.59 0.59 65 1017.5
20260901020503 68 219 1.0 4.0 0.01 0.59 0.59 65 1017.5
20260901020004 68 232 1.0 6.0 0.01 0.59 0.59 65 1017.5
20260901015503 68 252 0.0 6.0 0.01 0.59 0.59 65 1017.5
20260901015003 68 0 0.0 0.0 0.01 0.59 0.59 64 1017.4
20260901014503 68 0 0.0 0.0 0.01 0.59 0.59 64 1017.3
20260901014213 68 0 0.0 0.0 0.00 0.58 0.58 64 1017.5
20260901013503 68 0 0.0 0.0 0.00 0.58 0.58 64 1017.3
20260901013003 68 246 0.0 2.0 0.00 0.58 0.58 64 1017.4
20260901012503 68 226 1.0 2.0 0.00 0.58 0.58 64 1017.3
20260901012003 68 217 1.0 3.0 0.00 0.58 0.58 64 1017.3
20260901011503 68 217 1.0 3.0 0.00 0.58 0.58 64 1017.3
20260901011003 68 213 0.0 2.0 0.00 0.58 0.58 64 1017.3
20260901010712 68 0 0.0 0.0 0.00 0.58 0.58 64 1017.3
20260901010003 68 214 0.0 2.0 0.00 0.58 0.58 64 1017.3
20260901005503 68 214 0.0 2.0 0.00 0.58 0.58 64 1017.3
20260901005003 68 229 1.0 3.0 0.00 0.58 0.58 64 1017.3
20260901004503 68 217 1.0 4.0 0.00 0.58 0.58 64 1017.4
20260901004003 68 204 1.0 4.0 0.00 0.58 0.58 64 1017.3
20260901003503 68 222 1.0 5.0 0.00 0.58 0.58 64 1017.3
20260901003003 68 239 1.0 5.0 0.00 0.58 0.58 64 1017.2
20260901002503 68 254 1.0 6.0 0.00 0.58 0.58 64 1017.1
20260901002003 68 241 1.0 6.0 0.00 0.58 0.58 64 1017.1
20260901001503 69 242 1.0 4.0 0.00 0.58 0.58 64 1017.0
20260901001213 69 257 1.0 6.0 0.00 0.58 0.58 64 1017.0
20260901000503 69 231 1.0 6.0 0.00 0.58 0.58 64 1017.0
20260901000003 69 209 1.0 3.0 0.00 0.58 0.58 64 1017.1
20260831235503 69 249 1.0 7.0 0.00 0.58 0.58 64 1017.1
20260831235003 69 239 1.0 7.0 0.00 0.58 0.58 64 1017.0
20260831234714 69 225 1.0 6.0 0.00 0.58 0.58 64 1017.0
20260831234003 69 237 1.0 7.0 0.00 0.58 0.58 64 1017.0
20260831233714 69 237 1.0 7.0 0.00 0.58 0.58 64 1016.9
20260831233003 69 244 1.0 6.0 0.01 0.58 0.58 64 1016.9
20260831232503 69 256 0.0 6.0 0.01 0.58 0.58 64 1017.0
20260831232003 69 249 0.0 6.0 0.01 0.58 0.58 64 1017.0
20260831231503 69 194 0.0 1.0 0.01 0.58 0.58 64 1016.9
20260831231003 69 194 0.0 2.0 0.01 0.58 0.58 64 1017.0
20260831230503 69 199 1.0 3.0 0.01 0.58 0.58 65 1016.9
20260831230003 69 206 1.0 3.0 0.01 0.58 0.58 64 1017.0
20260831225003 68 210 0.0 2.0 0.01 0.58 0.58 64 1017.1
20260831224503 69 0 0.0 0.0 0.01 0.58 0.58 64 1017.2
20260831224003 69 0 0.0 0.0 0.01 0.58 0.58 64 1017.2
20260831223503 69 0 0.0 0.0 0.01 0.58 0.58 64 1017.3
20260831223214 69 0 0.0 0.0 0.01 0.58 0.58 64 1017.3
20260831222503 69 0 0.0 0.0 0.00 0.57 0.57 64 1017.3
20260831222003 69 0 0.0 0.0 0.00 0.57 0.57 64 1017.3
20260831221713 69 0 0.0 0.0 0.00 0.57 0.57 64 1017.2
20260831221003 69 0 0.0 0.0 0.00 0.57 0.57 64 1017.3
20260831220503 69 210 0.0 1.0 0.00 0.57 0.57 64 1017.2
20260831220214 69 210 0.0 2.0 0.00 0.57 0.57 64 1017.3
20260831215503 69 210 0.0 3.0 0.00 0.57 0.57 64 1017.4
20260831215003 69 207 1.0 3.0 0.00 0.57 0.57 64 1017.2
20260831214503 69 196 2.0 4.0 0.00 0.57 0.57 64 1017.3
20260831214214 69 191 2.0 4.0 0.00 0.57 0.57 64 1017.3
20260831213503 69 192 2.0 5.0 0.00 0.57 0.57 64 1017.4
20260831213003 69 207 1.0 3.0 0.00 0.57 0.57 64 1017.5
20260831212503 69 216 1.0 3.0 0.00 0.57 0.57 64 1017.5
20260831212003 69 208 0.0 3.0 0.00 0.57 0.57 64 1017.6
20260831211503 69 203 1.0 4.0 0.01 0.57 0.57 64 1017.5
20260831211003 69 195 1.0 4.0 0.02 0.57 0.57 64 1017.6
20260831210503 69 188 1.0 3.0 0.03 0.57 0.57 64 1017.5
20260831210003 69 179 1.0 3.0 0.04 0.57 0.57 64 1017.6
20260831205503 69 182 1.0 3.0 0.04 0.57 0.57 64 1017.5
20260831205003 68 179 2.0 6.0 0.07 0.57 0.57 64 1017.5
20260831204503 68 175 2.0 6.0 0.09 0.57 0.57 64 1017.5
20260831204003 68 172 1.0 5.0 0.10 0.57 0.57 64 1017.6
20260831203503 68 167 1.0 4.0 0.10 0.57 0.57 64 1017.6
20260831203003 68 167 2.0 5.0 0.10 0.57 0.57 64 1017.6
20260831202503 68 166 1.0 6.0 0.10 0.57 0.57 64 1017.8
20260831202003 68 157 1.0 6.0 0.10 0.57 0.57 64 1017.8
20260831201503 68 150 1.0 4.0 0.09 0.56 0.56 64 1017.8
20260831201003 68 160 1.0 4.0 0.08 0.55 0.55 64 1017.7
20260831200714 68 169 2.0 4.0 0.08 0.55 0.55 64 1017.8
20260831200003 67 163 3.0 6.0 0.06 0.53 0.53 64 1017.9
20260831195714 67 167 3.0 6.0 0.06 0.53 0.53 64 1017.8
20260831195003 67 198 2.0 6.0 0.03 0.50 0.50 63 1018.0
20260831194503 67 189 3.0 8.0 0.01 0.48 0.48 63 1018.0
20260831194003 67 186 4.0 8.0 0.00 0.47 0.47 63 1018.0
20260831193503 67 188 4.0 8.0 0.00 0.47 0.47 63 1018.1
20260831193003 67 187 4.0 9.0 0.00 0.47 0.47 63 1018.0
20260831192503 67 180 3.0 9.0 0.00 0.47 0.47 64 1018.1
20260831192003 67 178 3.0 8.0 0.00 0.47 0.47 64 1018.0
20260831191714 67 186 2.0 8.0 0.00 0.47 0.47 64 1018.0
20260831191003 67 178 3.0 9.0 0.01 0.47 0.47 64 1018.0
20260831190503 67 184 4.0 11.0 0.02 0.47 0.47 65 1018.0
20260831190003 66 190 4.0 11.0 0.04 0.47 0.47 64 1018.0
20260831185503 66 193 4.0 9.0 0.05 0.47 0.47 64 1017.9
20260831185003 66 192 5.0 8.0 0.07 0.47 0.47 64 1018.0
20260831184503 66 194 5.0 8.0 0.09 0.47 0.47 64 1018.1
20260831184003 66 204 4.0 9.0 0.10 0.47 0.47 64 1018.2
20260831183714 66 206 5.0 9.0 0.11 0.47 0.47 64 1018.2
20260831183213 65 200 5.0 13.0 0.12 0.47 0.47 64 1018.2
20260831182714 65 188 5.0 13.0 0.12 0.47 0.47 64 1018.2
20260831182003 66 181 3.0 8.0 0.14 0.47 0.47 64 1018.2
20260831181503 66 191 3.0 8.0 0.17 0.47 0.47 64 1018.4
20260831181003 66 197 4.0 10.0 0.17 0.46 0.46 64 1018.4
20260831180503 66 193 5.0 10.0 0.17 0.45 0.45 64 1018.5
20260831180003 66 192 4.0 10.0 0.16 0.43 0.43 64 1018.4
20260831175713 66 196 4.0 10.0 0.15 0.42 0.42 63 1018.5
20260831175003 66 180 4.0 9.0 0.14 0.40 0.40 64 1018.7
20260831174503 66 178 4.0 9.0 0.12 0.38 0.38 63 1018.5
20260831174212 66 175 4.0 8.0 0.12 0.38 0.38 63 1018.8
20260831173503 66 182 4.0 8.0 0.11 0.36 0.36 63 1018.8
20260831173003 66 185 3.0 8.0 0.11 0.35 0.35 63 1018.7
20260831172713 66 187 3.0 8.0 0.11 0.35 0.35 63 1018.7
20260831172003 66 189 3.0 6.0 0.09 0.33 0.33 63 1018.9
20260831171713 66 186 3.0 7.0 0.07 0.31 0.31 63 1018.8
20260831171003 66 191 3.0 8.0 0.05 0.29 0.29 63 1019.0
20260831170503 66 195 3.0 8.0 0.04 0.28 0.28 63 1019.1
20260831170003 66 192 2.0 6.0 0.03 0.27 0.27 63 1019.2
20260831165503 66 187 3.0 8.0 0.04 0.27 0.27 63 1019.2
20260831165003 66 187 3.0 8.0 0.03 0.26 0.26 63 1019.1
20260831164503 66 188 3.0 8.0 0.03 0.26 0.26 63 1019.1
20260831164003 66 185 4.0 9.0 0.02 0.25 0.25 63 1019.2
20260831163503 66 181 5.0 9.0 0.03 0.25 0.25 63 1019.2
20260831163003 66 183 4.0 8.0 0.02 0.24 0.24 63 1019.3
20260831162503 66 183 3.0 8.0 0.03 0.24 0.24 63 1019.3
20260831162003 66 163 3.0 9.0 0.04 0.24 0.24 63 1019.4
20260831161713 66 165 3.0 9.0 0.05 0.24 0.24 64 1019.6
20260831161003 66 188 3.0 8.0 0.07 0.24 0.24 63 1019.6
20260831160503 66 182 4.0 8.0 0.08 0.24 0.24 63 1019.7
20260831160003 67 183 4.0 8.0 0.08 0.24 0.24 64 1019.7
20260831155503 66 195 3.0 8.0 0.07 0.23 0.23 64 1019.7
20260831155003 66 189 3.0 10.0 0.07 0.23 0.23 63 1019.7
20260831154503 66 190 2.0 10.0 0.08 0.23 0.23 64 1019.8
20260831154003 66 200 2.0 7.0 0.08 0.23 0.23 64 1019.7
20260831153503 66 193 4.0 10.0 0.07 0.22 0.22 64 1019.8
20260831153003 66 195 4.0 10.0 0.07 0.22 0.22 63 1019.8
20260831152712 66 200 3.0 10.0 0.06 0.21 0.21 63 1019.8
20260831152003 66 206 3.0 8.0 0.07 0.20 0.20 64 1019.6
20260831151503 66 182 3.0 8.0 0.06 0.18 0.18 64 1019.7
20260831151003 66 162 3.0 7.0 0.07 0.17 0.17 63 1019.7
20260831150503 66 176 3.0 8.0 0.08 0.16 0.16 64 1019.7
20260831150003 66 180 3.0 8.0 0.09 0.16 0.16 63 1019.8
20260831145503 65 168 2.0 5.0 0.09 0.16 0.16 63 1019.8
20260831145213 65 169 2.0 5.0 0.09 0.16 0.16 64 1019.8
20260831144503 65 182 2.0 5.0 0.08 0.15 0.15 63 1019.7
20260831144003 65 191 3.0 6.0 0.08 0.15 0.15 63 1019.7
20260831143503 65 203 3.0 7.0 0.08 0.15 0.15 63 1019.7
20260831143003 65 206 1.0 7.0 0.08 0.15 0.15 63 1019.7
20260831142503 65 200 1.0 7.0 0.08 0.15 0.15 63 1019.8
20260831142003 65 188 2.0 7.0 0.06 0.13 0.13 63 1019.4
20260831141714 65 184 2.0 7.0 0.05 0.12 0.12 63 1019.4
20260831141003 65 192 1.0 5.0 0.03 0.10 0.10 63 1019.7
20260831140503 65 190 0.0 5.0 0.01 0.08 0.08 63 1019.6
20260831140003 65 178 0.0 1.0 0.00 0.07 0.07 63 1019.7
20260831135503 65 178 0.0 2.0 0.00 0.07 0.07 63 1019.7
20260831135003 65 176 1.0 4.0 0.00 0.07 0.07 63 1019.4
20260831134503 65 174 1.0 4.0 0.00 0.07 0.07 63 1019.5
20260831134003 65 188 1.0 4.0 0.00 0.07 0.07 63 1019.7
20260831133503 65 196 2.0 6.0 0.00 0.07 0.07 64 1019.6
20260831133003 64 194 3.0 6.0 0.00 0.07 0.07 64 1019.6
20260831132503 64 186 3.0 7.0 0.00 0.07 0.07 64 1019.4
20260831132003 64 176 3.0 7.0 0.00 0.07 0.07 64 1019.5
20260831131503 64 180 2.0 7.0 0.00 0.07 0.07 64 1019.4
20260831131003 64 194 2.0 6.0 0.00 0.07 0.07 64 1019.7
20260831130503 64 195 2.0 6.0 0.00 0.07 0.07 64 1019.5
20260831130003 64 191 2.0 8.0 0.00 0.07 0.07 64 1019.6
20260831125503 64 195 2.0 8.0 0.00 0.07 0.07 64 1019.6
20260831125003 64 203 2.0 6.0 0.00 0.07 0.07 64 1019.6
20260831124503 64 201 3.0 8.0 0.00 0.07 0.07 64 1019.6
20260831124003 64 196 3.0 8.0 0.00 0.07 0.07 64 1019.6
20260831123503 64 197 2.0 8.0 0.00 0.07 0.07 64 1019.6
20260831123003 64 198 2.0 8.0 0.00 0.07 0.07 64 1019.6
20260831122503 64 198 2.0 5.0 0.00 0.07 0.07 64 1019.6
20260831122212 64 196 1.0 5.0 0.00 0.07 0.07 64 1019.6
20260831121503 64 200 1.0 4.0 0.00 0.07 0.07 64 1019.7
20260831121212 64 205 0.0 2.0 0.00 0.07 0.07 64 1019.6
20260831120503 64 206 1.0 3.0 0.00 0.07 0.07 64 1019.7
20260831120003 64 200 2.0 4.0 0.00 0.07 0.07 63 1019.8
20260831115713 64 200 2.0 4.0 0.00 0.07 0.07 63 1019.9
20260831115003 64 201 2.0 5.0 0.01 0.07 0.07 63 1019.9
20260831114503 64 207 2.0 5.0 0.01 0.07 0.07 63 1020.0
20260831114003 64 221 1.0 4.0 0.01 0.07 0.07 63 1020.0
20260831113503 64 233 0.0 3.0 0.01 0.07 0.07 63 1020.0
20260831113003 64 233 0.0 2.0 0.01 0.07 0.07 63 1020.1
20260831112503 64 233 0.0 2.0 0.01 0.07 0.07 63 1020.1
20260831112003 64 205 0.0 2.0 0.02 0.07 0.07 63 1019.9
20260831111713 64 196 0.0 2.0 0.02 0.07 0.07 63 1020.0
20260831111003 64 195 0.0 2.0 0.02 0.07 0.07 63 1020.1
20260831110713 64 0 0.0 0.0 0.03 0.07 0.07 62 1019.9
20260831110003 64 0 0.0 0.0 0.03 0.07 0.07 62 1019.9
20260831105503 64 0 0.0 0.0 0.04 0.07 0.07 62 1019.9
20260831105214 64 0 0.0 0.0 0.03 0.06 0.06 62 1019.9
20260831104503 64 0 0.0 0.0 0.04 0.06 0.06 62 1019.9
20260831104003 64 0 0.0 0.0 0.04 0.06 0.06 62 1020.0
20260831103503 64 0 0.0 0.0 0.04 0.06 0.06 61 1019.9
20260831103003 64 0 0.0 0.0 0.04 0.06 0.06 61 1019.9
20260831102503 64 0 0.0 0.0 0.04 0.06 0.06 61 1019.8
20260831102003 64 0 0.0 0.0 0.04 0.05 0.05 61 1019.8
20260831101503 64 0 0.0 0.0 0.04 0.05 0.05 61 1019.8
20260831101003 64 0 0.0 0.0 0.05 0.05 0.05 61 1019.8
20260831100503 64 0 0.0 0.0 0.04 0.04 0.04 60 1019.9
20260831100003 64 0 0.0 0.0 0.04 0.04 0.04 60 1019.9
20260831095503 64 0 0.0 0.0 0.03 0.03 0.03 60 1019.8
20260831095003 64 0 0.0 0.0 0.03 0.03 0.03 59 1019.9
20260831094503 64 0 0.0 0.0 0.02 0.02 0.02 59 1019.9
20260831094003 64 0 0.0 0.0 0.02 0.02 0.02 59 1019.8
20260831093503 64 0 0.0 0.0 0.02 0.02 0.02 58 1019.8
20260831093213 64 0 0.0 0.0 0.02 0.02 0.02 58 1019.8
20260831092503 64 258 0.0 1.0 0.02 0.02 0.02 58 1019.9
20260831092003 64 260 0.0 2.0 0.01 0.01 0.01 57 1019.8
20260831091503 64 261 0.0 2.0 0.01 0.01 0.01 57 1019.8
20260831091003 64 259 0.0 2.0 0.00 0.00 0.00 57 1019.8
20260831090503 64 258 0.0 2.0 0.00 0.00 0.00 57 1019.8
20260831090003 64 252 0.0 2.0 0.00 0.00 0.00 57 1019.9
20260831085503 64 252 0.0 2.0 0.00 0.00 0.00 57 1019.9
20260831085003 64 240 0.0 2.0 0.00 0.00 0.00 56 1020.0
20260831084503 64 228 0.0 3.0 0.00 0.00 0.00 56 1020.0
20260831084003 64 245 1.0 3.0 0.00 0.00 0.00 56 1019.9
20260831083503 64 254 0.0 4.0 0.00 0.00 0.00 57 1020.0
20260831083003 64 249 0.0 4.0 0.00 0.00 0.00 57 1020.0
20260831082503 64 0 0.0 0.0 0.00 0.00 0.00 57 1020.1
20260831082003 64 0 0.0 0.0 0.00 0.00 0.00 57 1020.0
20260831081503 64 0 0.0 0.0 0.00 0.00 0.00 57 1020.0
20260831081003 64 0 0.0 0.0 0.00 0.00 0.00 57 1020.0
20260831080503 64 0 0.0 0.0 0.00 0.00 0.00 57 1019.8
20260831080003 64 0 0.0 0.0 0.00 0.00 0.00 57 1019.7
20260831075503 64 0 0.0 0.0 0.00 0.00 0.00 57 1019.7